Wind_Speed
14 14 13 13 12 12 12 11 10 10 10 9 8 8 8 7 7 8 9 10 10 11 11 11 12 12 12 13 13 13 14 15 15 15 15 14 15 14 15 15 14 13 12
17 17 16 15 14 14 14 13 12 11 11 11 10 10 10 9 9 9 10 11 12 12 13 13 13 13 14 14 14 13 14 14 15 15 15 15 16 15 16 16 16 16 14
19 18 17 17 16 16 16 15 14 13 13 12 12 12 11 11 11 11 11 11 13 13 14 15 15 15 16 16 16 16 15 15 15 16 16 16 16 16 16 17 17 18 17
21 20 20 19 18 17 17 17 16 15 14 13 13 13 13 13 12 12 12 12 13 14 15 16 16 17 18 18 18 19 18 18 18 18 17 17 17 17 17 17 18 19 20
22 22 22 21 21 20 19 19 18 17 16 15 15 15 15 15 15 14 14 14 14 14 16 17 18 19 20 20 21 21 21 21 21 21 20 20 19 18 18 19 19 19 21
23 23 23 23 23 22 21 21 20 20 19 18 17 17 17 17 17 17 17 17 16 16 17 18 18 20 21 22 22 23 23 23 24 23 23 22 21 21 20 20 20 20 21
25 25 26 26 25 25 24 23 23 22 21 20 20 19 19 19 19 20 20 20 19 18 19 19 19 20 21 22 23 24 24 25 25 25 25 25 24 23 22 21 21 21 21
27 28 28 28 27 27 27 25 24 23 22 22 22 21 21 21 21 21 22 23 22 21 22 21 21 21 22 23 23 24 25 25 26 26 26 26 26 24 24 23 23 22 22
30 30 30 30 30 29 28 27 26 24 23 23 23 22 22 22 23 23 23 24 25 23 24 24 24 23 22 23 24 25 24 25 25 26 26 26 26 26 25 25 24 24 23
32 32 32 32 32 31 30 29 27 26 25 24 24 24 24 24 25 25 25 25 26 26 25 25 26 25 23 23 24 25 24 24 25 25 26 26 26 26 26 26 25 25 25
36 36 35 34 32 31 32 31 29 27 26 25 26 25 25 25 26 25 26 26 26 26 26 25 25 26 25 23 24 26 25 24 24 25 26 26 27 27 27 27 26 26 26
39 38 36 34 32 31 31 31 30 28 27 26 26 26 26 26 26 26 26 26 26 25 25 25 25 26 26 25 24 26 25 25 24 25 25 26 27 27 27 27 27 26 27
41 37 34 33 32 31 31 31 30 28 26 26 26 26 26 26 26 26 26 26 26 25 25 25 25 24 25 25 25 25 25 25 25 25 25 26 27 27 27 27 27 26 26
38 38 37 36 33 31 31 31 30 28 26 25 25 25 25 25 26 26 26 26 25 25 25 24 24 25 25 25 25 25 25 25 25 25 25 26 26 27 27 27 27 27 26
37 37 34 31 31 31 30 30 28 26 24 24 24 24 25 26 26 25 25 25 25 25 24 24 24 24 24 24 25 26 25 26 25 24 25 25 26 27 27 28 28 27 27
33 31 29 29 28 28 27 26 24 23 23 23 24 24 25 25 25 25 25 25 25 25 24 25 25 25 24 23 24 25 25 25 25 25 25 25 25 26 27 27 27 27 27
26 25 25 25 24 23 22 21 21 21 22 24 24 24 25 25 25 25 25 25 25 25 24 24 25 24 24 24 23 24 25 25 26 26 25 25 25 25 26 26 26 26 26
17 16 16 17 16 16 17 18 19 21 22 23 24 24 25 25 25 25 25 25 24 24 24 24 25 24 23 24 24 23 24 25 26 26 26 25 25 25 25 25 25 26 26
10 10 11 12 13 14 16 18 20 21 22 23 23 24 24 24 25 25 24 24 24 24 24 23 24 24 23 23 24 24 24 24 25 26 26 26 26 25 25 25 25 25 25
7 8 10 12 14 16 17 19 20 20 21 22 23 24 24 24 24 24 24 24 23 23 23 23 24 24 23 22 22 23 24 25 25 26 27 27 27 27 26 26 26 26 26
7 9 12 14 16 17 18 19 20 21 22 22 23 22 23 23 23 23 24 24 24 24 24 24 24 23 23 22 22 22 22 22 23 25 26 27 27 28 28 28 28 28 27
11 12 14 16 17 18 19 20 21 22 22 22 22 22 22 22 22 23 23 23 23 23 23 23 24 23 23 22 22 21 21 20 20 23 25 25 26 27 29 29 30 30 30
13 14 15 17 18 19 20 21 22 22 22 22 22 22 22 22 22 21 22 22 22 22 22 22 22 22 22 22 22 21 21 20 20 20 21 22 25 27 28 28 29 31 32
13 15 16 18 19 19 20 21 21 22 22 22 22 21 21 21 21 21 20 21 21 21 21 21 21 21 21 20 20 20 20 20 19 19 21 21 22 24 26 28 30 31 32
14 14 15 16 16 17 18 19 20 21 21 21 20 20 20 20 20 20 19 18 18 18 19 19 19 19 19 19 19 19 19 18 19 20 21 21 22 23 25 26 27 29 31
14 14 15 15 14 15 15 16 17 18 18 18 17 17 17 18 18 17 16 16 16 16 16 16 17 17 17 17 18 18 18 18 18 18 19 20 20 21 22 23 25 26 28
Wind_Direction
268 265 264 269 278 287 293 294 298 303 307 306 305 305 301 297 291 285 285 281 278 276 275 275 271 268 263 258 260 256 250 242 239 240 241 242 243 241 239 238 238 240 243
267 264 262 264 269 276 283 286 289 292 300 303 302 304 303 300 296 288 284 281 278 276 274 272 270 268 265 258 256 255 252 250 248 246 246 248 248 245 243 241 241 240 241
268 264 261 261 265 271 277 280 281 285 290 294 296 299 299 299 299 294 290 285 281 277 274 272 269 266 264 259 256 255 252 253 253 252 252 253 252 250 248 245 244 242 241
268 265 260 258 260 267 272 274 275 278 279 282 286 292 295 296 297 297 295 289 284 281 279 274 271 267 264 260 257 257 257 256 254 255 257 257 256 255 252 250 246 243 242
268 265 260 257 258 263 268 269 270 270 271 274 279 284 287 290 292 294 292 290 288 286 281 276 272 269 266 263 260 258 257 257 256 255 255 256 258 258 255 254 251 247 244
269 266 262 258 258 260 263 264 266 267 266 268 273 278 281 283 286 289 287 286 286 285 281 278 275 270 267 265 262 259 258 257 257 256 255 255 256 257 257 256 254 252 248
269 266 264 260 259 259 260 262 263 264 264 266 270 275 276 279 281 284 286 284 286 285 280 279 276 272 269 265 263 261 258 258 257 256 255 255 255 255 255 256 255 254 251
274 266 263 262 262 260 257 258 260 260 262 264 267 272 273 275 275 277 282 283 283 284 282 279 275 271 269 266 263 261 259 257 256 255 255 255 255 254 254 255 255 254 254
279 273 265 264 264 262 256 255 256 257 259 262 265 269 272 272 274 275 278 280 282 283 282 282 278 272 269 265 263 261 259 258 256 255 253 253 253 253 253 254 254 254 254
280 279 272 269 265 261 256 254 254 255 257 259 263 267 270 272 275 277 276 278 281 283 282 281 281 275 269 265 262 261 260 259 258 255 253 252 252 252 252 253 254 254 255
280 279 277 275 271 264 257 254 253 253 255 258 262 265 268 271 273 275 276 277 279 280 280 279 280 277 271 264 261 261 260 260 259 256 253 251 252 251 251 253 254 254 255
280 280 278 276 271 266 261 255 253 253 254 258 260 264 267 270 273 274 276 278 279 278 279 278 276 276 271 265 261 260 260 260 259 256 254 251 251 250 251 252 254 255 256
276 275 274 276 272 268 264 258 254 253 254 257 259 264 267 270 272 274 275 277 277 278 278 277 275 274 271 266 262 260 259 259 258 257 255 252 250 249 249 250 252 254 256
272 273 275 271 269 266 263 257 253 251 252 256 261 264 267 269 271 273 275 276 277 277 277 276 273 273 271 267 265 261 260 258 258 257 255 252 249 248 248 249 251 253 256
271 273 274 270 266 264 260 253 248 248 250 256 262 265 267 270 272 274 275 276 276 276 276 277 276 274 271 265 263 261 260 258 257 256 255 253 250 249 248 249 251 253 256
271 270 269 266 261 257 253 247 243 247 254 259 263 266 267 268 270 272 274 275 276 275 275 276 276 275 270 266 261 261 259 255 255 256 254 253 252 251 249 249 251 253 256
267 266 262 257 252 248 244 241 245 252 257 261 264 265 266 267 270 271 272 273 273 273 273 273 276 276 269 265 264 263 260 255 255 255 254 254 253 252 250 249 251 252 254
257 255 250 245 243 243 244 248 252 257 260 262 264 265 266 267 269 270 271 271 271 271 272 271 275 276 271 266 265 265 262 257 254 254 254 253 252 252 251 250 250 251 253
245 239 240 243 247 251 254 257 259 261 262 263 263 264 265 267 268 269 270 270 269 269 271 270 272 274 274 270 266 265 263 260 255 253 252 252 251 252 251 251 251 251 252
250 253 255 257 258 260 262 263 263 263 265 265 264 264 266 268 268 268 268 268 269 268 269 269 270 272 273 275 270 270 267 264 258 252 251 251 251 252 251 251 250 251 252
276 271 267 266 266 267 268 268 268 269 268 267 267 267 267 267 268 268 268 269 269 269 269 269 269 271 271 273 273 275 273 269 261 254 253 252 252 251 251 251 251 252 253
290 284 280 277 274 273 271 271 271 271 270 268 268 268 268 268 269 269 269 269 270 270 270 269 269 270 271 272 273 278 279 273 270 262 256 252 252 252 252 252 253 253 254
299 293 288 284 280 277 275 274 272 271 270 269 269 269 268 269 269 269 269 268 269 270 270 270 270 271 272 272 273 277 280 279 275 271 265 261 257 253 251 253 255 256 256
306 300 295 290 286 282 278 276 274 272 271 270 269 269 267 266 266 266 267 268 268 270 270 271 271 271 271 273 273 275 277 279 278 274 273 272 266 263 257 256 256 257 258
319 312 306 300 294 288 283 279 276 273 270 268 268 267 266 265 263 263 266 268 269 270 271 272 273 273 272 272 274 275 276 277 276 275 276 275 274 272 269 265 263 263 262
332 325 317 310 304 297 289 284 279 276 272 268 265 263 263 263 259 260 265 266 268 271 273 274 273 273 273 274 275 276 277 277 278 279 278 279 279 278 277 272 270 269 268
Height
5899 5899 5899 5899 5899 5899 5898 5898 5897 5897 5896 5896 5895 5895 5894 5894 5894 5894 5894 5894 5895 5895 5896 5897 5897 5898 5898 5899 5900 5901 5903 5904 5905 5906 5907 5908 5910 5911 5913 5915 5916 5918 5919
5895 5895 5896 5896 5896 5896 5896 5896 5895 5895 5895 5894 5894 5893 5893 5893 5892 5892 5892 5892 5893 5893 5894 5894 5895 5896 5896 5897 5898 5899 5900 5902 5903 5904 5905 5906 5907 5909 5910 5912 5913 5915 5916
5892 5892 5892 5892 5893 5893 5893 5892 5892 5892 5892 5892 5892 5891 5891 5890 5890 5890 5890 5890 5890 5890 5891 5892 5892 5893 5894 5895 5896 5897 5898 5899 5900 5901 5902 5903 5904 5905 5907 5909 5910 5911 5913
5888 5888 5888 5888 5889 5889 5889 5889 5889 5889 5889 5889 5889 5889 5888 5888 5887 5888 5888 5888 5887 5888 5888 5888 5889 5890 5891 5892 5893 5894 5895 5896 5897 5898 5899 5900 5901 5902 5903 5905 5906 5908 5909
5883 5884 5884 5884 5885 5885 5885 5885 5886 5886 5886 5886 5886 5886 5885 5885 5884 5884 5885 5885 5885 5885 5884 5884 5885 5886 5887 5888 5889 5890 5891 5892 5893 5895 5896 5897 5898 5899 5900 5901 5903 5904 5906
5879 5879 5879 5880 5880 5881 5881 5881 5881 5882 5882 5882 5882 5882 5882 5881 5881 5881 5881 5881 5881 5881 5881 5880 5881 5881 5882 5883 5884 5885 5886 5887 5889 5890 5891 5893 5894 5895 5896 5897 5898 5900 5901
5874 5874 5874 5874 5875 5876 5876 5876 5877 5877 5877 5877 5878 5878 5878 5877 5877 5877 5876 5876 5877 5877 5877 5877 5877 5877 5877 5878 5879 5880 5881 5882 5883 5885 5886 5888 5889 5890 5892 5893 5894 5895 5897
5867 5868 5868 5868 5869 5869 5870 5870 5871 5872 5872 5873 5873 5873 5873 5874 5873 5873 5872 5871 5871 5872 5871 5872 5872 5872 5872 5873 5874 5875 5875 5876 5878 5879 5881 5882 5884 5885 5887 5888 5889 5891 5892
5860 5861 5861 5861 5862 5862 5863 5864 5865 5866 5866 5867 5868 5868 5868 5868 5868 5868 5867 5867 5866 5866 5866 5865 5866 5867 5867 5868 5868 5869 5870 5871 5872 5873 5875 5876 5878 5880 5881 5883 5884 5886 5887
5853 5854 5854 5854 5854 5855 5856 5858 5859 5859 5860 5861 5862 5862 5863 5863 5863 5862 5862 5862 5861 5860 5860 5860 5859 5859 5861 5862 5862 5862 5864 5865 5866 5867 5869 5870 5872 5874 5875 5877 5879 5880 5882
5846 5845 5845 5846 5846 5847 5849 5850 5851 5852 5853 5854 5855 5856 5856 5856 5856 5856 5856 5856 5856 5855 5854 5854 5854 5853 5854 5856 5856 5857 5858 5859 5860 5861 5863 5864 5866 5868 5869 5871 5873 5874 5876
5837 5837 5838 5838 5838 5839 5841 5842 5844 5845 5846 5848 5848 5849 5849 5849 5849 5849 5849 5849 5849 5849 5849 5848 5848 5848 5848 5849 5850 5850 5852 5853 5854 5855 5856 5858 5860 5861 5863 5865 5867 5868 5870
5829 5829 5830 5830 5830 5832 5833 5835 5836 5838 5839 5841 5841 5842 5842 5843 5842 5843 5843 5843 5842 5842 5843 5842 5842 5842 5842 5842 5843 5844 5845 5846 5848 5849 5850 5852 5853 5855 5857 5859 5861 5862 5864
5820 5821 5821 5822 5823 5824 5825 5826 5828 5830 5832 5834 5835 5835 5836 5836 5836 5836 5836 5836 5836 5836 5836 5836 5836 5836 5836 5836 5837 5837 5839 5840 5841 5842 5844 5845 5846 5848 5850 5852 5854 5856 5857
5811 5812 5813 5814 5815 5816 5817 5819 5821 5823 5825 5827 5828 5828 5829 5829 5829 5829 5829 5830 5830 5830 5830 5830 5830 5830 5830 5830 5830 5831 5832 5833 5835 5836 5837 5839 5840 5842 5844 5846 5848 5849 5851
5804 5804 5805 5806 5807 5808 5810 5812 5814 5816 5818 5820 5821 5822 5822 5823 5823 5822 5823 5823 5824 5824 5824 5824 5823 5824 5824 5823 5823 5824 5826 5827 5828 5830 5831 5832 5834 5835 5837 5839 5841 5842 5844
5797 5798 5799 5800 5801 5802 5804 5806 5808 5811 5813 5814 5814 5815 5816 5816 5816 5816 5816 5817 5817 5817 5818 5817 5817 5817 5818 5818 5818 5818 5819 5820 5821 5823 5825 5826 5828 5829 5831 5832 5834 5835 5837
5792 5793 5794 5795 5796 5798 5800 5802 5803 5805 5807 5807 5808 5809 5809 5810 5810 5810 5810 5810 5810 5811 5811 5811 5811 5811 5811 5811 5812 5812 5813 5814 5815 5817 5818 5820 5821 5823 5824 5826 5827 5829 5830
5789 5790 5792 5793 5794 5795 5796 5798 5799 5800 5801 5801 5802 5803 5803 5803 5804 5804 5804 5804 5804 5805 5805 5805 5805 5805 5805 5805 5806 5806 5807 5807 5808 5810 5811 5813 5815 5816 5818 5819 5821 5822 5824
5787 5788 5789 5790 5791 5792 5792 5793 5794 5794 5795 5795 5796 5796 5797 5797 5797 5797 5797 5798 5798 5798 5799 5799 5799 5799 5800 5799 5800 5800 5800 5800 5801 5803 5805 5806 5808 5810 5811 5813 5814 5816 5817
5785 5786 5787 5787 5787 5787 5788 5788 5788 5788 5789 5789 5790 5790 5790 5790 5791 5791 5791 5791 5791 5792 5792 5793 5793 5793 5794 5794 5794 5794 5794 5794 5794 5796 5797 5799 5800 5802 5804 5806 5807 5809 5810
5783 5783 5782 5782 5782 5782 5782 5781 5781 5782 5782 5783 5783 5783 5784 5784 5784 5784 5784 5785 5785 5785 5786 5787 5787 5788 5788 5788 5788 5788 5788 5788 5788 5790 5791 5792 5793 5795 5796 5798 5800 5801 5802
5779 5778 5777 5777 5776 5776 5775 5775 5775 5775 5775 5776 5776 5777 5777 5778 5777 5778 5778 5778 5779 5779 5780 5780 5781 5781 5782 5782 5783 5783 5783 5783 5783 5783 5784 5785 5786 5787 5789 5790 5792 5793 5794
5775 5774 5772 5771 5770 5769 5768 5768 5767 5768 5768 5769 5769 5770 5770 5771 5771 5771 5771 5772 5773 5773 5773 5774 5775 5775 5776 5776 5777 5777 5778 5778 5778 5778 5778 5779 5779 5780 5781 5782 5784 5785 5785
5771 5769 5767 5765 5764 5762 5761 5761 5760 5761 5761 5762 5762 5763 5763 5764 5764 5765 5766 5767 5767 5768 5768 5768 5769 5769 5770 5770 5771 5772 5772 5772 5772 5773 5773 5773 5773 5774 5774 5775 5775 5776 5776
5768 5765 5763 5761 5759 5757 5756 5755 5754 5754 5754 5755 5755 5756 5756 5757 5758 5759 5760 5761 5762 5763 5763 5763 5764 5764 5765 5765 5765 5766 5766 5767 5767 5767 5767 5767 5767 5767 5767 5768 5768 5768 5767